Regional Weather Roundup
Issued by NWS New Orleans/Baton Rouge, LA

Home | Current Version | Previous Version | Graphics & Text | Print | Product List | Glossary On
Versions: 1 2 3 4 5 6 7 8 9 10 11 12 13 14 15 16 17 18 19 20 21 22 23 24 25 26 27 28 29 30 31 32 33 34 35 36 37 38 39 40 41 42 43 44 45 46 47 48 49 50
964
ASUS44 KLIX 210601
RWRLIX
NEW ORLEANS REGIONAL WEATHER ROUNDUP
NATIONAL WEATHER SERVICE NEW ORLEANS LA
100 AM CDT TUE OCT 21 2014

NOTE: "FAIR" INDICATES FEW OR NO CLOUDS BELOW 12,000 FEET WITH NO
      SIGNIFICANT WEATHER AND/OR OBSTRUCTIONS TO VISIBILITY.
      SKY/WX - SKY CONDITION AND SIGNIFICANT WEATHER.
      TMP - AIR TEMPERATURE.     DP    - DEWPOINT TEMPERATURE.
      RH  - RELATIVE HUMIDITY.   PRES  - PRESSURE.
      HI  - HEAT INDEX.          WCI   - WIND CHILL INDEX.

*  THESE STATIONS ARE NOT NWS OR FAA STATIONS AND ARE NOT UNDER
   NWS QUALITY CONTROL.

LAZ038-040-048-061>063-065>067-069-210700-
SOUTHEAST LOUISIANA

CITY           SKY/WX    TMP DP  RH WIND       PRES   REMARKS
N.O. AUDUBON   NOT AVBL
N.O. INTL ARPT PTCLDY    63  55  75 CALM      30.01S
6HR MIN TEMP:  63; 6HR MAX TEMP:  71;

N.O. LAKEFRONT CLEAR     71  56  58 NE9       30.01F
6HR MIN TEMP:  71; 6HR MAX TEMP:  75;

N.O. DOWNTOWN*   N/A     70  54  56 CALM      30.01F
6HR MIN TEMP:  70; 6HR MAX TEMP:  73;

SLIDELL        CLEAR     53  50  89 CALM      30.01F
6HR MIN TEMP:  53; 6HR MAX TEMP:  63;

BATON ROUGE    CLEAR     57  53  86 CALM      30.02F
6HR MIN TEMP:  57; 6HR MAX TEMP:  65;

BOOTHVILLE     CLEAR     71  60  68 NE3       30.00F
6HR MIN TEMP:  70; 6HR MAX TEMP:  72;

BELLE CHASSE   CLEAR     57  53  86 CALM      30.00F
6HR MIN TEMP:  56; 6HR MAX TEMP:  66;

BOGALUSA*        N/A     52  49  87 CALM      30.04S
6HR MIN TEMP:  52; 6HR MAX TEMP:  63;

NEW ROADS*       N/A     56  54  94 CALM      30.03S
6HR MIN TEMP:  56; 6HR MAX TEMP:  67;

GONZALES*        N/A     56  56 100 CALM      30.01F
6HR MIN TEMP:  56; 6HR MAX TEMP:  64;

HAMMOND*       NOT AVBL
HOUMA*         CLEAR     57  56  96 CALM      30.00F FOG
6HR MIN TEMP:  56; 6HR MAX TEMP:  69;

PORT FOURCHON* CLEAR     70  61  73 NE6       30.03S

$$

MSZ070-080>082-210700-
SOUTHERN MISSISSIPPI

CITY           SKY/WX    TMP DP  RH WIND       PRES   REMARKS
MCCOMB         CLEAR     56  51  84 N5        30.03F
6HR MIN TEMP:  54; 6HR MAX TEMP:  64;

GULFPORT       CLEAR     56  52  86 CALM      30.01S
6HR MIN TEMP:  54; 6HR MAX TEMP:  66;

BILOXI         CLEAR     59  52  76 NE5       30.01S
6HR MIN TEMP:  59; 6HR MAX TEMP:  70;

PASCAGOULA     CLEAR     50  48  93 CALM      30.01F
6HR MIN TEMP:  49; 6HR MAX TEMP:  60;


$$

COASTAL OBSERVATIONS
LAKE AND NEARSHORE STATIONS

STATION/POSITION TIME  TEMP    WIND        PRES    WAVE
                       AIR SEA DIR/SP/G            HT/PER
                 (UTC) (F)     (DEG/KT/KT) (MB)    (FT/S)
PASCAGOULA       0500   60      10/  4/  5 1015.7
WAVELAND YACHT   0500   66     360/  5/  9 1015.5
GRAND ISLE       0500   71 78   60/  6/  8 1016.4
SOUTHWEST PASS   0500   73 84              1015.9
NEW CANAL        0500   72 72   50/ 10/ 12 1016.5
SHELL BEACH      0500   71 70   30/  9/ 12 1015.9

OFFSHORE STATIONS

STATION/POSITION TIME  TEMP    WIND        PRES    WAVE
                       AIR SEA DIR/SP/G            HT/PER
                 (UTC) (F)     (DEG/KT/KT) (MB)    (FT/S)
64 S DAUPHIN ISL 0522   74 79   30/  8/ 10 1016.1    1/ 5

$$




USA.gov is the U.S. government's official web portal to all federal, state and local government web resources and services.